Regional Weather Roundup
Issued by NWS Portland, ME

Current Version | Previous Version | Text Only | Print | Product List | Glossary On
Versions: 1 2 3 4 5 6 7 8 9 10 11 12 13 14 15 16 17 18 19 20 21 22 23 24 25 26 27 28 29 30 31 32 33 34 35 36 37 38 39 40 41 42 43 44 45 46 47 48 49 50
000
ASUS41 KGYX 281410
RWRGYX
WEATHER ROUNDUP FOR MAINE AND NEW HAMPSHIRE
NATIONAL WEATHER SERVICE GRAY ME
1000 AM EDT SUN AUG 28 2016

MEZ002-005-006-010-012-015-018-020-021-024-026-027-029-281500-
MAINE

CITY           SKY/WX    TMP DP  RH WIND       PRES   REMARKS
PORTLAND       MOSUNNY   75  61  61 S6        30.30S
SANFORD        MOSUNNY   75  61  61 VRB7      30.30S
BAR HARBOR     CLOUDY    67  59  75 CALM      30.32R
WISCASSET      CLOUDY    71  59  65 VRB5      30.31S
FRYEBURG       PTSUNNY   70  61  73 CALM      30.29F
LEWISTONAUBURN PTSUNNY   72  62  71 SE7       30.29F
AUGUSTA        CLOUDY    70  59  68 SE8       30.30S
WATERVILLE     CLOUDY    70  61  73 VRB5      30.28R
BANGOR         CLOUDY    68  57  68 S9        30.30S
GREENVILLE       N/A     62  50  64 VRB3      30.28F
MILLINOCKET    CLOUDY    61  56  83 CALM      30.30F
HOULTON        CLOUDY    64  58  80 VRB5      30.28F
PRESQUE ISLE   CLOUDY    61  57  87 SE6       30.29F
FRENCHVILLE    CLOUDY    58  51  78 SE5       30.27F
CARIBOU        CLOUDY    61  56  83 SE5       30.27F
$$

NHZ002-005-008-009-011-012-014-281500-
NEW HAMPSHIRE

CITY           SKY/WX    TMP DP  RH WIND       PRES   REMARKS
PORTSMOUTH     PTSUNNY   77  60  54 S6        30.28F
ROCHESTER      SUNNY     76  60  57 S8        30.29S
NASHUA         SUNNY     76  60  57 VRB5      30.30S
MANCHESTER     MOSUNNY   76  60  57 S9        30.28S
CONCORD        SUNNY     78  60  53 S9        30.28F
LACONIA        SUNNY     74  61  63 SW7       30.29S
PLYMOUTH       FAIR      71  61  70 NE3       30.28F
BERLIN         MOSUNNY   68  59  73 CALM      30.28F
WHITEFIELD     CLOUDY    69  61  75 CALM      30.27F
JAFFREY        PTSUNNY   73  57  57 SW8       30.32S
KEENE          MOSUNNY   74  64  71 S7        30.29F
LEBANON        MOSUNNY   71  62  73 CALM      30.27S
MT WASHINGTON  MOSUNNY   52  50  93 SW21        N/A
$$

VTZ005-007-008-281500-
VERMONT

CITY           SKY/WX    TMP DP  RH WIND       PRES   REMARKS
ST JOHNSBURY     N/A     65  58  78 MISG      30.25F
MONTPELIER     CLOUDY    71  61  70 S9        30.29F
BURLINGTON     PTSUNNY   78  62  57 S18G24    30.19F
$$

MAZ007-012-024-CTZ003-RIZ002-NYZ038-NYZ072-281500-
SOUTHERN NEW ENGLAND AND NY

CITY           SKY/WX    TMP DP  RH WIND       PRES   REMARKS
BOSTON         MOSUNNY   76  60  57 SE5       30.29F
WORCESTER      SUNNY     72  58  61 S9        30.32F
NANTUCKET      SUNNY     75  60  59 N14       30.28S
PROVIDENCE     MOSUNNY   77  56  48 VRB3      30.30R
HARTFORD       MOSUNNY   76  65  68 VRB3      30.29S
ALBANY         MOSUNNY   75  62  64 SE6       30.25F
NEW YORK CITY  SUNNY     81  67  62 NE7       30.26S
$$

ANZ081-ANZ082-ANZ150-NHZ014-MEZ023>029-281500-
COASTAL MARINE OBSERVATIONS

STATION/POSITION TIME  TEMP    WIND        PRES    WAVE
                       AIR SEA DIR/SP/G            HT/PER
                 (UTC) (F)     (DEG/KT/KT) (MB)    (FT/S)
MOUNT DESERT ROC 1400   66     130/  6/  6 1026.6R
MATINICUS ROCK   1400   65     140/ 11/ 12 1026.0R
ISLE OF SHOALS   1400   69     160/  7/  7 1025.8S
JEFFREYS LEDGE   1308      68                N/A     1/ 9
CASHES LEDGE BUO 1350   69 69  140/  6/  6 1026.1S   1/ 9
GEORGES BANK BUO 1350   69 67              1023.8R   2/ 9
$$

.............KEY..............
   WCI - WIND CHILL
   TC  - TEMPERATURE IN CELSIUS
   VSB - VISIBILITY IN MILES
   HX  - HEAT INDEX
   FAIR- INDICATES FEW OR NO CLOUDS BELOW 12,000 FT, WITH NO
         SIGNIFICANT WEATHER AND/OR OBSTRUCTIONS TO VISIBILITY.






USA.gov is the U.S. government's official web portal to all federal, state and local government web resources and services.